Temp
-26 -25 -25 -25 -26 -27 -27 -27 -25 -25 -25 -24 -24 -23 -23 -23 -22 -21 -20 -20 -20 -19 -19 -19 -18 -17 -17 -17 -17 -16 -15 -15 -15 -15 -15 -14 -14 -14 -14 -15 -15 -15 -15
-27 -25 -25 -25 -26 -27 -27 -26 -25 -25 -24 -23 -23 -22 -22 -22 -22 -22 -21 -21 -20 -20 -20 -19 -18 -18 -17 -17 -16 -16 -15 -16 -15 -15 -15 -15 -14 -14 -15 -16 -15 -16 -15
-27 -25 -25 -25 -26 -26 -26 -25 -25 -24 -22 -22 -22 -21 -22 -22 -21 -21 -20 -19 -19 -19 -18 -18 -18 -17 -17 -16 -16 -16 -16 -14 -15 -15 -14 -14 -15 -15 -15 -15 -16 -16 -16
-27 -25 -24 -25 -26 -25 -25 -25 -24 -23 -22 -21 -21 -21 -21 -21 -20 -19 -19 -19 -18 -18 -18 -18 -17 -17 -16 -16 -16 -15 -15 -16 -16 -15 -15 -15 -15 -15 -16 -16 -16 -16 -16
-27 -25 -24 -24 -25 -25 -24 -24 -23 -22 -21 -20 -20 -20 -19 -19 -19 -19 -18 -18 -17 -18 -18 -17 -16 -16 -16 -16 -15 -15 -15 -16 -16 -15 -15 -16 -15 -17 -17 -17 -17 -17 -17
-27 -24 -24 -24 -24 -24 -24 -23 -21 -21 -21 -20 -19 -19 -18 -19 -18 -18 -17 -16 -16 -16 -16 -16 -17 -16 -16 -14 -15 -15 -15 -16 -15 -15 -15 -16 -17 -17 -17 -17 -17 -17 -17
-26 -24 -24 -24 -24 -23 -22 -21 -22 -21 -20 -19 -18 -18 -18 -18 -18 -17 -16 -15 -16 -16 -16 -16 -16 -16 -15 -16 -16 -16 -16 -16 -16 -16 -18 -17 -17 -17 -17 -17 -18 -18 -18
-24 -23 -23 -23 -23 -22 -22 -21 -21 -19 -19 -18 -18 -17 -16 -16 -16 -16 -16 -15 -16 -16 -16 -15 -15 -15 -15 -16 -16 -16 -16 -17 -17 -17 -17 -17 -17 -18 -18 -18 -18 -18 -19
-23 -23 -23 -23 -23 -22 -22 -21 -19 -19 -18 -17 -17 -16 -16 -16 -16 -16 -16 -16 -16 -16 -16 -15 -15 -16 -16 -16 -16 -17 -17 -17 -17 -17 -18 -18 -18 -18 -18 -19 -19 -20 -20
-23 -22 -23 -23 -22 -22 -21 -21 -19 -18 -18 -17 -17 -16 -16 -16 -16 -16 -15 -15 -16 -16 -16 -16 -16 -16 -16 -18 -17 -17 -17 -18 -18 -18 -18 -18 -18 -19 -19 -20 -20 -20 -21
-22 -22 -23 -22 -21 -21 -20 -20 -19 -19 -18 -17 -17 -16 -16 -16 -16 -16 -16 -16 -16 -16 -16 -16 -16 -17 -17 -17 -17 -18 -18 -18 -18 -18 -18 -19 -19 -20 -20 -20 -21 -22 -23
-22 -22 -21 -21 -20 -20 -20 -19 -19 -18 -18 -17 -17 -17 -17 -17 -17 -17 -16 -16 -16 -17 -17 -17 -17 -17 -18 -18 -18 -18 -18 -18 -19 -19 -19 -20 -20 -20 -21 -23 -23 -23 -23
-21 -22 -20 -20 -20 -20 -20 -19 -18 -18 -18 -17 -17 -16 -17 -16 -17 -16 -16 -17 -17 -17 -17 -17 -17 -17 -18 -18 -18 -19 -19 -19 -19 -20 -21 -21 -20 -21 -23 -23 -23 -24 -24
-21 -20 -20 -20 -20 -20 -20 -19 -18 -18 -17 -17 -17 -17 -16 -17 -17 -18 -17 -17 -17 -17 -17 -17 -18 -18 -18 -19 -19 -19 -19 -19 -20 -21 -21 -21 -21 -23 -23 -23 -24 -24 -24
-20 -20 -20 -20 -19 -20 -19 -19 -18 -17 -17 -17 -17 -17 -17 -17 -17 -17 -17 -17 -17 -18 -18 -18 -18 -19 -19 -19 -19 -19 -19 -19 -20 -21 -21 -21 -21 -23 -24 -24 -24 -24 -24
-20 -20 -19 -19 -19 -19 -18 -18 -17 -17 -17 -17 -17 -17 -18 -17 -17 -17 -17 -17 -18 -18 -18 -18 -19 -19 -19 -19 -19 -19 -20 -20 -20 -21 -21 -21 -22 -22 -23 -23 -24 -24 -24
-20 -20 -19 -19 -19 -19 -18 -18 -17 -17 -17 -17 -17 -18 -18 -17 -17 -17 -17 -18 -18 -18 -19 -19 -19 -19 -19 -19 -19 -20 -20 -20 -20 -20 -21 -21 -22 -22 -22 -23 -23 -23 -24
-20 -19 -19 -19 -19 -18 -18 -18 -17 -17 -17 -17 -17 -18 -17 -17 -18 -18 -18 -18 -18 -18 -19 -19 -19 -19 -19 -19 -20 -20 -20 -20 -20 -20 -20 -21 -21 -22 -22 -22 -23 -23 -23
-19 -18 -18 -18 -18 -18 -18 -18 -17 -17 -17 -17 -17 -18 -18 -18 -18 -17 -18 -18 -18 -18 -19 -19 -19 -19 -19 -19 -20 -20 -20 -20 -20 -20 -20 -21 -21 -21 -22 -22 -22 -22 -23
-18 -18 -17 -17 -18 -18 -18 -17 -17 -17 -17 -17 -17 -18 -18 -18 -17 -18 -18 -18 -18 -18 -18 -18 -18 -19 -19 -19 -19 -20 -20 -20 -20 -20 -20 -20 -21 -21 -21 -22 -22 -22 -22
-17 -17 -17 -17 -17 -17 -18 -17 -18 -17 -17 -17 -17 -18 -18 -17 -18 -17 -17 -18 -18 -18 -18 -18 -18 -18 -18 -19 -19 -19 -19 -19 -20 -20 -20 -20 -21 -21 -21 -21 -22 -22 -22
-16 -17 -17 -17 -17 -17 -17 -17 -17 -17 -17 -17 -17 -17 -17 -17 -17 -17 -17 -17 -17 -18 -18 -18 -18 -18 -18 -18 -18 -19 -19 -19 -19 -20 -20 -20 -20 -21 -21 -21 -21 -22 -22
-16 -16 -17 -17 -17 -17 -17 -17 -17 -17 -17 -17 -18 -17 -17 -17 -17 -17 -17 -17 -17 -17 -17 -18 -18 -18 -18 -18 -18 -18 -19 -19 -19 -19 -20 -20 -20 -20 -20 -21 -21 -21 -21
-16 -16 -16 -17 -17 -17 -17 -17 -17 -17 -17 -18 -18 -17 -17 -17 -18 -18 -17 -17 -17 -17 -17 -17 -17 -18 -18 -18 -18 -18 -18 -19 -19 -19 -19 -19 -20 -20 -20 -20 -20 -21 -21
-17 -17 -17 -17 -18 -17 -17 -17 -17 -17 -17 -17 -17 -17 -17 -18 -18 -17 -17 -17 -17 -18 -17 -17 -17 -17 -17 -17 -18 -18 -18 -18 -19 -19 -19 -19 -20 -20 -20 -20 -20 -20 -21
-17 -17 -17 -17 -17 -17 -17 -17 -17 -17 -17 -17 -17 -18 -17 -18 -18 -17 -17 -17 -17 -18 -18 -17 -17 -17 -17 -17 -17 -18 -18 -18 -18 -19 -19 -19 -19 -19 -19 -20 -20 -20 -20
Height
5512 5508 5504 5501 5497 5494 5492 5491 5492 5495 5497 5499 5500 5504 5507 5511 5516 5523 5532 5541 5553 5565 5578 5589 5598 5603 5614 5625 5632 5639 5645 5649 5653 5654 5656 5656 5657 5657 5655 5653 5650 5649 5649
5504 5500 5497 5494 5492 5489 5488 5488 5489 5490 5491 5492 5496 5500 5503 5507 5511 5518 5526 5536 5548 5560 5572 5581 5590 5602 5610 5617 5624 5632 5636 5640 5644 5647 5647 5649 5649 5648 5646 5645 5643 5642 5640
5497 5493 5492 5489 5487 5486 5486 5485 5486 5486 5486 5490 5495 5498 5501 5506 5512 5518 5527 5538 5548 5558 5568 5579 5586 5596 5603 5613 5621 5625 5629 5629 5635 5638 5640 5640 5640 5640 5639 5636 5635 5633 5631
5490 5487 5487 5485 5484 5484 5484 5483 5482 5481 5484 5488 5491 5495 5502 5506 5511 5518 5528 5537 5546 5556 5566 5575 5583 5591 5602 5610 5615 5620 5617 5627 5628 5630 5632 5632 5632 5631 5630 5629 5627 5626 5626
5481 5481 5483 5482 5481 5482 5481 5479 5479 5481 5484 5488 5492 5499 5502 5506 5511 5518 5525 5531 5545 5555 5562 5570 5580 5590 5597 5605 5611 5615 5620 5623 5625 5624 5625 5625 5624 5624 5624 5622 5621 5620 5617
5475 5476 5480 5480 5480 5480 5479 5479 5480 5482 5486 5490 5494 5495 5502 5507 5511 5517 5525 5536 5547 5556 5564 5571 5579 5589 5595 5599 5610 5612 5616 5619 5619 5619 5620 5619 5619 5619 5618 5615 5614 5611 5608
5472 5474 5478 5479 5480 5480 5480 5481 5484 5486 5490 5494 5499 5504 5507 5509 5514 5520 5527 5542 5554 5560 5566 5573 5578 5590 5597 5602 5606 5608 5612 5612 5613 5614 5615 5616 5615 5613 5611 5607 5604 5600 5596
5472 5475 5477 5480 5482 5483 5483 5486 5488 5493 5498 5501 5503 5505 5510 5516 5518 5523 5534 5544 5555 5562 5568 5575 5585 5591 5595 5599 5604 5606 5608 5609 5611 5613 5613 5611 5609 5607 5603 5599 5593 5587 5581
5476 5477 5481 5483 5484 5486 5488 5491 5495 5499 5502 5504 5509 5514 5515 5519 5525 5531 5541 5550 5558 5564 5571 5577 5586 5590 5594 5599 5603 5605 5608 5610 5610 5609 5608 5606 5603 5598 5593 5587 5580 5574 5568
5478 5481 5486 5487 5489 5492 5495 5498 5501 5505 5508 5509 5513 5520 5524 5529 5532 5540 5548 5556 5563 5568 5573 5579 5586 5591 5596 5601 5604 5607 5608 5609 5608 5605 5602 5599 5595 5589 5583 5576 5569 5563 5558
5480 5486 5491 5493 5496 5500 5503 5506 5507 5512 5515 5516 5521 5526 5530 5534 5541 5546 5552 5560 5569 5573 5580 5585 5591 5595 5601 5603 5605 5606 5607 5606 5605 5602 5598 5592 5587 5580 5573 5567 5560 5556 5554
5486 5492 5496 5500 5504 5506 5509 5512 5515 5519 5521 5524 5530 5533 5537 5543 5549 5554 5559 5566 5572 5580 5586 5592 5597 5600 5602 5604 5605 5607 5607 5606 5602 5598 5592 5585 5579 5572 5564 5559 5557 5554 5551
5493 5499 5503 5507 5510 5513 5514 5518 5520 5525 5529 5534 5540 5545 5549 5553 5558 5563 5568 5574 5580 5589 5593 5597 5601 5602 5605 5608 5609 5608 5606 5604 5600 5594 5589 5582 5573 5564 5560 5558 5555 5553 5550
5500 5506 5510 5515 5517 5520 5522 5525 5530 5532 5536 5543 5551 5556 5558 5564 5569 5574 5580 5585 5589 5595 5600 5603 5605 5608 5610 5611 5609 5609 5608 5604 5598 5592 5586 5579 5570 5563 5561 5559 5556 5555 5552
5509 5514 5518 5522 5525 5528 5531 5534 5536 5540 5546 5555 5560 5566 5571 5573 5577 5582 5589 5593 5597 5602 5606 5609 5611 5612 5612 5613 5614 5612 5609 5604 5598 5593 5588 5582 5574 5567 5565 5563 5560 5558 5555
5517 5522 5526 5530 5534 5537 5541 5544 5547 5552 5559 5564 5570 5577 5580 5586 5589 5593 5597 5601 5604 5608 5612 5615 5616 5616 5617 5617 5617 5615 5612 5607 5603 5599 5595 5590 5584 5578 5572 5568 5565 5562 5559
5525 5529 5534 5538 5542 5546 5550 5555 5559 5561 5566 5572 5579 5584 5590 5596 5599 5603 5606 5609 5611 5614 5618 5620 5621 5621 5621 5622 5621 5619 5617 5614 5611 5608 5603 5598 5593 5588 5582 5578 5573 5569 5565
5532 5537 5541 5546 5550 5554 5558 5564 5569 5573 5576 5580 5584 5593 5598 5604 5607 5610 5613 5618 5621 5620 5624 5626 5627 5627 5627 5627 5627 5625 5625 5623 5620 5616 5612 5608 5603 5598 5593 5589 5585 5581 5577
5539 5544 5549 5554 5558 5563 5567 5572 5577 5583 5588 5594 5598 5600 5606 5611 5616 5619 5621 5624 5628 5629 5631 5632 5633 5634 5634 5634 5633 5633 5632 5631 5628 5626 5622 5618 5614 5610 5606 5602 5598 5594 5590
5544 5549 5555 5560 5566 5569 5573 5581 5588 5593 5598 5604 5608 5612 5616 5620 5625 5628 5629 5632 5635 5637 5639 5640 5641 5642 5642 5642 5642 5642 5641 5640 5637 5635 5632 5629 5626 5622 5619 5615 5611 5607 5602
5549 5554 5561 5567 5572 5575 5583 5589 5596 5602 5608 5613 5617 5620 5624 5629 5633 5637 5639 5640 5643 5646 5647 5649 5651 5651 5652 5651 5651 5651 5650 5649 5647 5645 5643 5641 5638 5635 5631 5627 5623 5619 5615
5556 5561 5567 5572 5578 5585 5592 5598 5605 5611 5617 5622 5626 5629 5633 5636 5642 5645 5648 5650 5652 5654 5656 5658 5660 5661 5661 5661 5661 5661 5660 5659 5658 5656 5654 5652 5649 5646 5643 5639 5635 5631 5627
5562 5568 5575 5581 5588 5594 5601 5607 5613 5618 5624 5629 5634 5639 5641 5645 5649 5653 5657 5659 5661 5664 5666 5667 5669 5670 5670 5671 5671 5671 5670 5670 5669 5667 5665 5663 5661 5658 5655 5651 5648 5644 5640
5572 5578 5585 5591 5597 5603 5609 5615 5620 5626 5632 5636 5641 5647 5651 5653 5658 5661 5664 5668 5670 5673 5675 5676 5677 5678 5679 5680 5681 5681 5681 5680 5679 5678 5677 5675 5673 5670 5667 5664 5661 5658 5654
5582 5589 5595 5600 5605 5612 5618 5624 5629 5634 5639 5643 5649 5655 5659 5662 5665 5669 5672 5676 5679 5681 5683 5684 5686 5687 5689 5690 5691 5692 5691 5691 5690 5689 5688 5686 5684 5682 5680 5677 5674 5670 5667
5592 5598 5603 5609 5614 5620 5626 5632 5637 5642 5646 5651 5656 5662 5666 5670 5673 5677 5680 5683 5686 5689 5692 5693 5694 5695 5698 5699 5700 5701 5701 5701 5701 5700 5699 5698 5696 5695 5692 5690 5687 5684 5680
Wind_Speed
31 33 31 30 27 26 20 19 18 18 18 21 25 24 27 28 27 28 33 37 44 42 51 38 44 43 43 39 35 35 39 37 31 41 39 34 36 38 41 45 40 32 31
31 30 28 27 23 17 15 15 13 18 20 22 19 20 22 27 29 30 33 34 41 39 36 38 39 30 30 35 32 30 28 30 37 31 30 31 35 37 42 31 28 28 32
32 27 25 23 18 11 11 16 19 17 13 9 6 9 19 22 24 27 30 30 29 32 32 30 26 30 33 33 28 26 28 29 29 28 28 32 38 39 34 28 27 31 33
32 27 22 19 12 7 10 15 12 2 11 8 7 12 17 19 26 29 31 28 28 27 26 29 30 27 27 28 23 21 25 26 27 26 33 39 35 32 27 26 28 29 30
33 26 19 16 6 6 10 10 4 8 13 5 7 4 10 23 26 28 30 33 21 25 28 28 29 29 30 25 23 28 24 28 33 40 35 32 29 21 24 25 26 30 34
32 17 13 7 4 7 7 7 12 11 10 9 16 19 24 28 28 30 23 21 20 19 23 28 36 33 27 31 32 25 29 34 42 37 34 19 18 21 24 26 30 34 36
21 6 5 1 3 8 8 14 12 9 9 10 17 16 18 22 25 24 33 23 19 20 27 20 29 24 27 25 22 26 32 30 23 15 11 15 19 22 27 30 34 39 42
7 4 5 3 5 11 18 15 13 16 12 9 11 14 22 25 20 22 27 29 21 19 18 22 24 19 16 23 27 29 24 10 7 10 12 16 21 26 29 31 35 38 40
10 9 8 5 17 20 18 17 17 21 27 35 28 27 23 29 24 23 21 27 23 24 25 20 18 26 26 22 20 11 7 7 6 10 15 18 20 23 27 32 35 35 36
14 13 9 19 20 21 21 18 27 28 21 27 32 25 27 22 24 21 30 32 24 22 31 33 35 29 20 16 13 8 2 4 8 10 13 17 22 25 27 28 31 34 30
17 16 16 22 23 21 22 17 25 20 17 29 21 19 16 16 15 21 19 16 21 21 30 24 21 23 19 14 7 4 4 6 9 12 17 20 22 24 26 28 23 13 12
21 17 23 25 23 24 22 17 23 19 23 27 26 26 37 45 44 45 48 42 38 31 30 26 22 19 16 10 9 9 8 11 15 17 19 21 23 24 20 11 8 8 10
22 25 26 25 24 24 19 24 18 22 29 25 22 38 46 43 39 38 39 39 39 32 28 22 16 16 15 15 14 13 17 18 20 21 21 21 24 20 13 11 11 10 10
25 27 26 26 26 25 21 21 26 24 30 34 41 39 34 35 41 42 40 37 35 29 22 18 19 20 19 18 19 19 19 22 25 25 25 29 29 20 17 17 15 15 15
32 28 27 27 29 24 20 22 29 42 46 40 41 35 37 43 44 41 37 33 31 26 22 23 24 21 21 22 22 23 25 29 32 29 30 34 37 29 18 18 19 16 16
29 28 27 29 30 28 30 34 42 42 44 43 38 36 42 41 38 35 32 31 31 30 28 24 22 23 23 25 27 27 31 35 37 35 32 35 41 42 37 29 23 21 19
28 25 27 29 29 25 26 30 40 44 42 37 39 46 40 37 34 31 31 32 34 32 27 24 24 25 26 27 27 30 34 36 38 39 39 39 41 43 46 46 46 44 42
25 24 25 30 23 25 30 35 36 36 40 49 49 43 40 34 32 33 36 34 30 32 28 27 28 29 28 28 28 32 33 35 38 40 43 44 45 46 46 46 46 46 46
23 22 27 27 20 29 30 40 34 40 46 43 41 42 37 33 34 38 37 36 32 32 32 32 33 32 32 33 35 35 36 38 39 40 41 43 45 46 46 47 47 47 47
25 30 32 26 28 32 39 42 39 45 44 40 39 37 35 36 38 37 39 38 37 36 38 37 37 39 39 39 40 40 41 40 41 41 42 43 44 45 46 46 47 47 48
34 33 33 30 33 42 46 38 44 43 41 39 37 36 38 40 38 39 40 40 40 40 41 41 41 41 41 41 41 41 40 40 41 42 43 43 43 44 45 46 46 47 49
36 34 34 39 48 48 42 47 43 42 39 36 35 38 42 41 39 39 39 40 40 41 41 41 41 41 41 42 42 42 42 42 43 44 44 45 45 46 46 46 47 47 48
39 38 43 47 47 43 45 46 44 41 39 36 37 40 41 40 39 37 37 36 36 38 38 39 40 40 41 40 41 42 43 44 45 47 48 49 49 49 50 51 52 52 53
43 46 45 43 42 47 49 44 42 40 37 39 39 40 40 39 37 36 35 34 34 35 36 37 38 39 41 42 42 44 45 46 46 47 48 49 50 51 52 53 54 55 56
50 47 44 44 47 46 44 43 40 39 38 39 40 39 39 38 36 35 35 35 34 34 35 37 38 39 41 41 43 43 43 44 44 45 46 47 48 49 50 52 53 53 54
43 41 41 45 43 44 43 40 39 37 39 40 41 39 38 37 36 35 34 33 33 32 32 34 37 36 38 41 39 39 39 40 41 42 43 44 45 47 49 50 51 52 53
Wind_Direction
304 300 303 305 303 306 301 290 253 250 259 255 246 251 245 239 229 221 220 217 209 211 214 215 221 229 226 226 228 237 235 244 248 255 250 266 265 279 282 285 280 265 267
315 302 304 307 307 307 306 289 266 263 266 244 247 246 239 217 211 205 195 201 211 213 216 222 225 217 213 213 219 220 227 232 244 244 261 267 273 278 280 264 264 271 270
312 304 303 307 306 304 293 279 278 292 264 196 206 244 231 210 209 193 186 189 194 195 204 216 200 201 201 206 209 227 225 223 252 252 263 276 275 273 258 264 271 270 272
304 298 300 308 303 316 291 282 318 24 135 158 257 197 203 207 187 180 179 171 181 186 187 188 188 196 190 196 197 218 216 250 251 261 267 266 263 256 262 267 270 271 270
301 289 299 309 307 303 292 342 101 151 173 139 174 169 204 186 182 178 183 163 168 181 187 191 186 180 181 185 207 223 234 253 263 250 255 249 251 265 266 267 271 272 273
305 288 292 303 267 287 11 114 103 97 111 151 172 178 179 183 187 185 145 144 175 180 190 180 182 191 186 206 217 223 235 244 253 258 244 245 258 261 268 273 274 278 284
325 335 310 201 261 51 106 99 88 103 143 173 184 185 196 195 184 162 145 145 187 176 170 180 200 191 186 214 233 234 253 231 228 228 242 251 262 270 278 283 287 288 288
14 75 108 145 67 99 90 85 85 105 130 139 103 128 132 115 128 133 147 157 176 173 169 189 171 179 208 231 242 221 214 199 211 238 260 275 282 286 290 292 292 292 292
95 110 116 112 99 88 85 83 105 110 93 99 91 91 110 104 109 119 155 174 161 164 161 154 192 186 223 201 189 154 154 203 252 280 289 292 299 303 300 298 299 300 301
119 128 125 103 93 91 88 90 88 83 87 97 102 98 107 124 111 117 144 135 149 130 160 163 167 171 157 123 135 146 133 301 304 314 322 316 312 311 311 309 306 303 304
131 135 115 98 98 97 98 105 86 82 102 85 55 87 88 106 126 121 120 129 159 157 153 153 150 125 130 123 106 83 27 9 3 342 335 330 325 323 318 310 310 314 315
138 130 112 105 100 97 106 113 91 82 99 97 103 113 118 119 124 125 129 132 138 122 113 115 124 116 103 90 74 70 60 30 14 2 352 349 342 328 328 355 358 348 358
136 125 113 104 102 105 117 115 113 100 91 115 105 123 125 125 129 137 128 118 114 119 117 109 100 94 95 95 89 72 53 36 24 18 13 5 359 4 31 29 22 27 31
131 120 112 108 107 107 105 95 81 92 100 122 125 124 127 125 120 111 114 117 110 106 103 101 99 101 97 89 73 64 49 44 40 34 28 26 27 38 49 45 47 52 57
127 122 114 111 110 111 108 109 99 116 121 125 124 119 124 119 119 119 117 112 107 106 98 101 99 96 85 79 73 63 58 52 48 44 42 45 47 49 56 51 55 54 47
128 120 119 115 111 107 89 99 114 118 124 124 124 129 122 120 118 116 113 110 106 103 103 98 91 86 85 80 73 67 59 57 55 51 53 55 59 62 63 62 58 54 49
126 127 122 118 119 122 117 111 126 129 132 131 131 123 124 118 114 112 110 105 107 102 98 92 88 87 85 81 75 68 64 62 61 59 60 61 62 64 65 66 66 65 63
135 129 126 127 135 126 109 127 131 134 132 131 128 125 122 120 114 111 106 104 101 96 94 91 88 85 83 80 76 72 68 67 66 65 65 66 66 66 66 66 65 65 64
141 140 137 138 148 129 121 139 128 133 128 129 126 122 120 115 114 113 108 104 97 94 93 89 87 86 85 83 80 78 76 73 72 70 68 68 67 68 68 68 68 68 68
155 147 141 148 136 130 134 139 135 131 129 126 122 118 116 115 116 110 106 103 99 96 96 96 93 90 87 86 84 82 79 76 74 73 71 70 70 69 69 70 70 70 69
142 146 147 144 143 136 142 136 132 134 129 126 124 120 118 119 114 112 108 106 105 104 101 97 94 91 88 87 86 84 83 80 79 76 75 74 73 72 71 70 69 69 69
148 149 144 145 139 139 135 135 137 132 129 127 123 123 123 118 119 117 112 110 108 103 99 98 96 95 92 91 90 88 87 85 83 81 79 78 76 75 74 73 72 70 69
143 144 146 141 136 140 141 141 138 134 132 127 127 126 124 124 123 120 114 111 108 104 101 99 99 98 95 94 92 91 91 89 87 85 84 83 81 79 78 76 75 73 72
141 141 140 144 145 144 143 142 138 134 132 129 129 130 129 125 124 120 116 111 108 105 104 102 100 100 98 97 96 95 94 92 89 88 85 84 82 80 78 77 76 75 73
138 139 141 144 144 145 143 141 139 135 133 131 133 132 129 127 125 122 118 113 108 107 106 106 105 105 102 101 100 98 95 93 91 87 84 82 80 77 76 75 74 72 71
140 142 145 146 148 146 144 142 139 137 137 135 136 135 133 130 128 125 120 115 111 109 109 109 108 108 109 107 103 102 99 95 91 88 84 82 80 79 78 76 74 72 70